User: anonymous   Login
Location: Unspecified
(0.0000°N, 0.0000°E)
Time: 08:49:38
(UTC+00:00)
Language:

STARLINK-31300 - Orbit

View from above orbital plane
View from above orbital plane
View from above satellite
View from above satellite

Ground track
Ground track

The orbit is defined by the following mean orbital elements,

1 58878U          26145.48170035 +.00000000 +00000-0 +37280-4 0 00009
2 58878  53.1599 325.3513 0001109  82.6333 277.4796 15.34391946    05
Epoch (UTC): 25 May 2026 11:33:38
Eccentricity: 0.0001109
inclination: 53.1599°
perigee height: 462 km
apogee height: 463 km
right ascension of ascending node: 325.3513°
argument of perigee: 82.6333°
revolutions per day: 15.34391946
mean anomaly at epoch: 277.4796°

The dashed part of the orbit path shows where the satellite is in the earth's shadow,  

DLR